When you browse on this site, cookies collect data to enhance your experience and personalize the content and advertising you see.
Visit our Privacy Policy to learn more. By continuing to use the site, you agree to this use of cookies and data.
  • In Portugal
  • List of Countries
  • For 7 days
  • Water Temperature
  • Weather Map
  • Weather Widgets
  • user-avatar
    Login

    Hourly Weather Bashkarka

    Today, 6 June, Saturday

    Time Temperature Precipitation Wind Pressure Humidity
    00:00 +12°C° 0 mm 2 mps 749 mmHg 76%
    01:00 +11°C° 0 mm 1 mps 749 mmHg 80%
    02:00 +11°C° 0 mm 1 mps 750 mmHg 80%
    03:00 +11°C° 0 mm 1 mps 750 mmHg 81%
    04:00 +12°C° 0 mm 1 mps 750 mmHg 83%
    05:00 +14°C° 0 mm 1 mps 750 mmHg 76%
    06:00 +16°C° 0 mm 1 mps 750 mmHg 69%
    07:00 +19°C° 0 mm 1 mps 749 mmHg 63%
    08:00 +21°C° 0 mm 1 mps 749 mmHg 57%
    09:00 +21°C° 0 mm 2 mps 750 mmHg 51%
    10:00 +24°C° 0 mm 2 mps 750 mmHg 45%
    11:00 +24°C° 0 mm 2 mps 749 mmHg 42%
    12:00 +25°C° 0 mm 2 mps 749 mmHg 38%
    13:00 +26°C° 0 mm 2 mps 749 mmHg 35%
    14:00 +26°C° 0 mm 2 mps 749 mmHg 35%
    15:00 +26°C° 0 mm 2 mps 748 mmHg 35%
    16:00 +26°C° 0 mm 2 mps 748 mmHg 36%
    17:00 +24°C° 0 mm 2 mps 748 mmHg 43%
    18:00 +23°C° 0 mm 2 mps 748 mmHg 50%
    19:00 +21°C° 0 mm 2 mps 748 mmHg 57%
    20:00 +19°C° 0 mm 2 mps 748 mmHg 61%
    21:00 +17°C° 0 mm 2 mps 748 mmHg 64%
    22:00 +14°C° 0 mm 3 mps 749 mmHg 67%
    23:00 +15°C° 0 mm 2 mps 748 mmHg 70%

    Tomorrow, 7 June, Sunday

    Time Temperature Precipitation Wind Pressure Humidity
    00:00 +14°C° 0 mm 2 mps 748 mmHg 73%
    01:00 +13°C° 0 mm 2 mps 748 mmHg 75%
    02:00 +13°C° 0 mm 2 mps 749 mmHg 75%
    03:00 +13°C° 0 mm 2 mps 749 mmHg 75%
    04:00 +13°C° 0 mm 2 mps 749 mmHg 74%
    05:00 +15°C° 0 mm 2 mps 749 mmHg 68%
    06:00 +17°C° 0 mm 2 mps 749 mmHg 62%
    07:00 +19°C° 0 mm 2 mps 749 mmHg 56%
    08:00 +21°C° 0 mm 2 mps 749 mmHg 48%
    09:00 +23°C° 0 mm 2 mps 749 mmHg 41%
    10:00 +25°C° 0 mm 3 mps 749 mmHg 34%
    11:00 +26°C° 0 mm 3 mps 749 mmHg 32%
    12:00 +27°C° 0 mm 3 mps 749 mmHg 30%
    13:00 +28°C° 0 mm 3 mps 749 mmHg 28%
    14:00 +28°C° 0 mm 3 mps 749 mmHg 29%
    15:00 +28°C° 0 mm 3 mps 749 mmHg 30%
    16:00 +28°C° 0 mm 3 mps 749 mmHg 31%
    17:00 +26°C° 0 mm 2 mps 748 mmHg 39%
    18:00 +25°C° 0 mm 2 mps 748 mmHg 47%
    19:00 +24°C° 0 mm 2 mps 748 mmHg 55%
    20:00 +21°C° 0 mm 2 mps 748 mmHg 59%
    21:00 +19°C° 0 mm 2 mps 748 mmHg 62%
    22:00 +17°C° 0 mm 2 mps 749 mmHg 66%
    23:00 +16°C° 0 mm 2 mps 749 mmHg 69%

    Day after tomorrow, 8 June, Monday

    Time Temperature Precipitation Wind Pressure Humidity
    00:00 +16°C° 0 mm 1 mps 749 mmHg 72%
    01:00 +15°C° 0 mm 1 mps 749 mmHg 76%
    02:00 +15°C° 0 mm 1 mps 749 mmHg 76%
    03:00 +15°C° 0 mm 1 mps 749 mmHg 76%
    04:00 +15°C° 0 mm 1 mps 750 mmHg 77%
    05:00 +18°C° 0 mm 1 mps 750 mmHg 70%
    06:00 +21°C° 0 mm 1 mps 750 mmHg 64%
    07:00 +23°C° 0 mm 1 mps 750 mmHg 58%
    08:00 +24°C° 0 mm 1 mps 750 mmHg 51%
    09:00 +26°C° 0 mm 1 mps 750 mmHg 45%
    10:00 +28°C° 0 mm 1 mps 750 mmHg 38%
    11:00 +28°C° 0 mm 1 mps 750 mmHg 36%
    12:00 +29°C° 0 mm 1 mps 750 mmHg 34%
    13:00 +30°C° 0 mm 1 mps 750 mmHg 31%
    14:00 +29°C° 0 mm 1 mps 750 mmHg 32%
    15:00 +29°C° 0 mm 1 mps 750 mmHg 33%
    16:00 +29°C° 0 mm 2 mps 750 mmHg 33%
    17:00 +28°C° 0 mm 1 mps 750 mmHg 40%
    18:00 +27°C° 0 mm 1 mps 750 mmHg 47%
    19:00 +25°C° 0 mm 1 mps 749 mmHg 54%
    20:00 +23°C° 0 mm 1 mps 750 mmHg 57%
    21:00 +21°C° 0 mm 1 mps 750 mmHg 60%
    22:00 +20°C° 0 mm 1 mps 750 mmHg 63%
    23:00 +19°C° 0 mm 1 mps 750 mmHg 66%

    9 June, Tuesday

    Time Temperature Precipitation Wind Pressure Humidity
    00:00 +18°C° 0 mm 1 mps 750 mmHg 68%
    01:00 +17°C° 0 mm 2 mps 751 mmHg 71%
    02:00 +16°C° 0 mm 2 mps 751 mmHg 73%
    03:00 +16°C° 0 mm 2 mps 751 mmHg 76%
    04:00 +16°C° 0 mm 2 mps 751 mmHg 78%
    05:00 +18°C° 0 mm 2 mps 752 mmHg 72%
    06:00 +20°C° 0 mm 2 mps 752 mmHg 67%
    07:00 +23°C° 0 mm 2 mps 752 mmHg 61%
    08:00 +25°C° 0 mm 2 mps 752 mmHg 54%
    09:00 +26°C° 0 mm 2 mps 752 mmHg 48%
    10:00 +28°C° 0 mm 2 mps 752 mmHg 42%
    11:00 +29°C° 0 mm 2 mps 752 mmHg 40%
    12:00 +29°C° 0 mm 2 mps 752 mmHg 38%
    13:00 +30°C° 0 mm 2 mps 752 mmHg 36%
    14:00 +30°C° 0 mm 2 mps 752 mmHg 36%
    15:00 +30°C° 0 mm 2 mps 751 mmHg 35%
    16:00 +30°C° 0 mm 2 mps 751 mmHg 35%
    17:00 +29°C° 0 mm 1 mps 751 mmHg 42%
    18:00 +27°C° 0 mm 1 mps 751 mmHg 48%
    19:00 +26°C° 0 mm 1 mps 751 mmHg 54%
    20:00 +24°C° 0 mm 1 mps 751 mmHg 58%
    21:00 +23°C° 0 mm 1 mps 751 mmHg 62%
    22:00 +21°C° 0 mm 1 mps 751 mmHg 65%
    23:00 +20°C° 0 mm 1 mps 751 mmHg 68%

    10 June, Wednesday

    Time Temperature Precipitation Wind Pressure Humidity
    00:00 +19°C° 0 mm 1 mps 751 mmHg 71%
    01:00 +18°C° 0 mm 2 mps 751 mmHg 74%
    02:00 +18°C° 0 mm 2 mps 751 mmHg 74%
    03:00 +17°C° 0 mm 2 mps 751 mmHg 73%
    04:00 +17°C° 0 mm 2 mps 752 mmHg 72%
    05:00 +19°C° 0 mm 2 mps 752 mmHg 67%
    06:00 +21°C° 0 mm 2 mps 752 mmHg 61%
    07:00 +24°C° 0 mm 2 mps 752 mmHg 56%
    08:00 +25°C° 0 mm 2 mps 751 mmHg 50%
    09:00 +27°C° 0 mm 2 mps 751 mmHg 44%
    10:00 +28°C° 0 mm 2 mps 751 mmHg 38%
    11:00 +29°C° 0 mm 3 mps 751 mmHg 37%
    12:00 +29°C° 0 mm 3 mps 751 mmHg 36%
    13:00 +30°C° 0 mm 3 mps 751 mmHg 35%
    14:00 +30°C° 0 mm 3 mps 751 mmHg 36%
    15:00 +30°C° 0 mm 3 mps 750 mmHg 37%
    16:00 +30°C° 0 mm 3 mps 750 mmHg 38%
    17:00 +29°C° 0 mm 3 mps 750 mmHg 44%
    18:00 +27°C° 0 mm 2 mps 750 mmHg 51%
    19:00 +26°C° 0 mm 2 mps 749 mmHg 57%
    20:00 +24°C° 0 mm 2 mps 749 mmHg 61%
    21:00 +23°C° 0 mm 2 mps 750 mmHg 64%
    22:00 +20°C° 0 mm 2 mps 750 mmHg 67%
    23:00 +19°C° 0 mm 2 mps 750 mmHg 70%

    11 June, Thursday

    Time Temperature Precipitation Wind Pressure Humidity
    00:00 +19°C° 0 mm 2 mps 750 mmHg 72%
    01:00 +18°C° 0 mm 2 mps 750 mmHg 75%
    02:00 +18°C° 0 mm 2 mps 749 mmHg 76%
    03:00 +18°C° 0 mm 2 mps 749 mmHg 76%
    04:00 +17°C° 0 mm 2 mps 749 mmHg 77%
    05:00 +20°C° 0 mm 2 mps 749 mmHg 71%
    06:00 +23°C° 0 mm 2 mps 749 mmHg 65%
    07:00 +25°C° 0 mm 2 mps 749 mmHg 60%
    08:00 +26°C° 0 mm 2 mps 749 mmHg 52%
    09:00 +28°C° 0 mm 3 mps 748 mmHg 45%
    10:00 +29°C° 0 mm 3 mps 748 mmHg 38%
    11:00 +30°C° 0 mm 3 mps 748 mmHg 36%
    12:00 +30°C° 0 mm 3 mps 747 mmHg 35%
    13:00 +31°C° 0 mm 3 mps 747 mmHg 34%
    14:00 +30°C° 0 mm 4 mps 746 mmHg 38%
    15:00 +29°C° 0 mm 4 mps 746 mmHg 43%
    16:00 +28°C° 0 mm 4 mps 745 mmHg 47%
    17:00 +26°C° 0.7 mm 3 mps 745 mmHg 58%
    18:00 +24°C° 0.7 mm 2 mps 745 mmHg 70%
    19:00 +22°C° 0.7 mm 1 mps 744 mmHg 81%
    20:00 +21°C° 0.4 mm 1 mps 744 mmHg 84%
    21:00 +19°C° 0.4 mm 2 mps 744 mmHg 86%
    22:00 +19°C° 0.4 mm 3 mps 743 mmHg 89%
    23:00 +18°C° 0.1 mm 3 mps 743 mmHg 90%
    Show more